Starlink 5716

operational
NORAD ID: 56504 Int'l Des: 2023-065 Owner: SPXS Country: US Constellation: starlink
LEOCIRCULAR

About Starlink 5716

Description loading...

Live Position

Loading 3D Globe...

Upcoming Passes

Altitude History

Altitude vs Time

uPlot chart will show altitude changes over time

Two-Line Element Set

1 56504U 23065B 25352.27255534 -.00000346 00000-0 -10527-4 0 9990
2 56504 43.0047 293.0698 0001344 268.3612 91.7077 15.02533978144370
Epoch: Dec 18, 2025 • Age: 20 hours

Current Status

Altitude 563.1 km
Velocity 7.59 km/s
Sub-Earth Point 42.90°N, 93.15°W
Launch Date May 14, 2023
Age 2.5 years
Type internet

Technical Details

Classification Payload
Mass 305.00 kg
Dry Mass 290.00 kg
Total Mass 305.00 kg
Length 0.20 m
Diameter 2.80 m
Span 9.00 m
Shape Box + pan
Manufacturer SPXS
Bus Type Starlink
Phase Status In Orbit
Owner/State SPXS/US

Large Constellations

Loading constellations...